• In India
  • List of Countries
  • For 7 days
  • Water Temperature
  • Satellite Maps
  • Weather Map
  • Weather Widgets
  • user-avatar
    Login

    Hourly Weather Poplavy

    Today, 10 December, Monday

    Time Temperature Precipitation Wind Pressure Humidity
    00:00 0°C° 0 mm 3 mps 718 mmHg 85%
    01:00 0°C° 0 mm 3 mps 718 mmHg 86%
    02:00 +1°C° 0 mm 2 mps 718 mmHg 86%
    03:00 +1°C° 0 mm 2 mps 718 mmHg 86%
    04:00 +1°C° 0 mm 2 mps 718 mmHg 86%
    05:00 +1°C° 0 mm 2 mps 718 mmHg 86%
    06:00 +1°C° 0 mm 2 mps 718 mmHg 86%
    07:00 +1°C° 0 mm 2 mps 718 mmHg 87%
    08:00 +1°C° 0 mm 2 mps 718 mmHg 87%
    09:00 +1°C° 0.1 mm 2 mps 718 mmHg 88%
    10:00 +1°C° 0.1 mm 3 mps 718 mmHg 90%
    11:00 +1°C° 0.1 mm 3 mps 719 mmHg 91%
    12:00 +1°C° 0.1 mm 3 mps 719 mmHg 90%
    13:00 +1°C° 0.1 mm 3 mps 719 mmHg 90%
    14:00 +2°C° 0.1 mm 3 mps 719 mmHg 90%
    15:00 +1°C° 0 mm 3 mps 720 mmHg 90%
    16:00 +1°C° 0 mm 3 mps 720 mmHg 89%
    17:00 +1°C° 0 mm 3 mps 720 mmHg 89%
    18:00 0°C° 0 mm 3 mps 721 mmHg 89%
    19:00 -1°C° 0 mm 4 mps 721 mmHg 89%
    20:00 -2°C° 0 mm 4 mps 721 mmHg 89%
    21:00 -2°C° 0 mm 4 mps 721 mmHg 89%
    22:00 -2°C° 0 mm 3 mps 722 mmHg 89%
    23:00 -2°C° 0 mm 3 mps 722 mmHg 89%

    Tomorrow, 11 December, Tuesday

    Time Temperature Precipitation Wind Pressure Humidity
    00:00 -2°C° 0 mm 3 mps 722 mmHg 90%
    01:00 -2°C° 0 mm 3 mps 722 mmHg 90%
    02:00 -4°C° 0 mm 3 mps 723 mmHg 91%
    03:00 -4°C° 0 mm 3 mps 723 mmHg 92%
    04:00 -4°C° 0 mm 3 mps 723 mmHg 92%
    05:00 -4°C° 0 mm 3 mps 723 mmHg 93%
    06:00 -4°C° 0 mm 3 mps 723 mmHg 93%
    07:00 -3°C° 0 mm 2 mps 723 mmHg 93%
    08:00 -3°C° 0 mm 2 mps 723 mmHg 93%
    09:00 -2°C° 0 mm 2 mps 724 mmHg 91%
    10:00 -2°C° 0 mm 2 mps 724 mmHg 88%
    11:00 -1°C° 0 mm 2 mps 724 mmHg 85%
    12:00 -1°C° 0 mm 2 mps 724 mmHg 84%
    13:00 +2°C° 0 mm 1 mps 724 mmHg 82%
    14:00 +2°C° 0 mm 1 mps 724 mmHg 81%
    15:00 +1°C° 0 mm 1 mps 725 mmHg 83%
    16:00 0°C° 0 mm 1 mps 725 mmHg 85%
    17:00 0°C° 0 mm 1 mps 725 mmHg 86%
    18:00 0°C° 0 mm 1 mps 725 mmHg 86%
    19:00 -1°C° 0 mm 1 mps 725 mmHg 86%
    20:00 -1°C° 0 mm 1 mps 725 mmHg 87%
    21:00 -1°C° 0 mm 1 mps 726 mmHg 86%
    22:00 -1°C° 0 mm 1 mps 726 mmHg 86%
    23:00 -1°C° 0 mm 1 mps 726 mmHg 85%

    Day after tomorrow, 12 December, Wednesday

    Time Temperature Precipitation Wind Pressure Humidity
    00:00 -1°C° 0 mm 1 mps 726 mmHg 85%
    01:00 -1°C° 0 mm 1 mps 726 mmHg 85%
    02:00 -1°C° 0 mm 1 mps 726 mmHg 85%
    03:00 -1°C° 0 mm 1 mps 726 mmHg 84%
    04:00 -1°C° 0 mm 1 mps 726 mmHg 84%
    05:00 -1°C° 0 mm 1 mps 726 mmHg 83%
    06:00 -2°C° 0 mm 0 mps 726 mmHg 83%
    07:00 -2°C° 0 mm 0 mps 726 mmHg 82%
    08:00 -2°C° 0 mm 0 mps 727 mmHg 82%
    09:00 -2°C° 0 mm 0 mps 727 mmHg 80%
    10:00 0°C° 0 mm 1 mps 727 mmHg 77%
    11:00 0°C° 0 mm 1 mps 727 mmHg 75%
    12:00 +1°C° 0 mm 1 mps 727 mmHg 75%
    13:00 -1°C° 0 mm 2 mps 727 mmHg 75%
    14:00 -1°C° 0 mm 2 mps 726 mmHg 75%
    15:00 -2°C° 0 mm 2 mps 726 mmHg 79%
    16:00 -2°C° 0 mm 3 mps 726 mmHg 82%
    17:00 -4°C° 0 mm 3 mps 726 mmHg 85%
    18:00 -4°C° 0 mm 3 mps 726 mmHg 86%
    19:00 -4°C° 0 mm 4 mps 726 mmHg 87%
    20:00 -4°C° 0 mm 4 mps 726 mmHg 88%
    21:00 -4°C° 0 mm 4 mps 726 mmHg 88%
    22:00 -5°C° 0 mm 5 mps 726 mmHg 89%
    23:00 -5°C° 0 mm 5 mps 726 mmHg 89%

    13 December, Thursday

    Time Temperature Precipitation Wind Pressure Humidity
    00:00 -5°C° 0.2 mm 6 mps 726 mmHg 89%
    01:00 -5°C° 0.2 mm 6 mps 726 mmHg 89%
    02:00 -6°C° 0.2 mm 7 mps 726 mmHg 89%
    03:00 -6°C° 0.3 mm 7 mps 726 mmHg 89%
    04:00 -6°C° 0.3 mm 7 mps 726 mmHg 89%
    05:00 -6°C° 0.3 mm 7 mps 725 mmHg 89%
    06:00 -6°C° 0.4 mm 7 mps 725 mmHg 90%
    07:00 -6°C° 0.4 mm 7 mps 725 mmHg 90%
    08:00 -6°C° 0.4 mm 7 mps 725 mmHg 90%
    09:00 -6°C° 0.3 mm 7 mps 725 mmHg 90%
    10:00 -4°C° 0.3 mm 7 mps 726 mmHg 90%
    11:00 -4°C° 0.3 mm 7 mps 726 mmHg 90%
    12:00 -4°C° 0.3 mm 7 mps 726 mmHg 90%
    13:00 -4°C° 0.3 mm 6 mps 725 mmHg 90%
    14:00 -4°C° 0.3 mm 6 mps 725 mmHg 90%
    15:00 -4°C° 0.3 mm 6 mps 726 mmHg 91%
    16:00 -4°C° 0.3 mm 6 mps 726 mmHg 91%
    17:00 -4°C° 0.3 mm 5 mps 726 mmHg 92%
    18:00 -4°C° 0.2 mm 5 mps 726 mmHg 92%
    19:00 -4°C° 0.2 mm 5 mps 726 mmHg 92%
    20:00 -4°C° 0.2 mm 5 mps 726 mmHg 93%
    21:00 -3°C° 0.2 mm 4 mps 727 mmHg 93%
    22:00 -4°C° 0.2 mm 4 mps 727 mmHg 93%
    23:00 -4°C° 0.2 mm 4 mps 727 mmHg 93%

    14 December, Friday

    Time Temperature Precipitation Wind Pressure Humidity
    00:00 -4°C° 0.1 mm 4 mps 727 mmHg 93%
    01:00 -4°C° 0.1 mm 4 mps 727 mmHg 94%
    02:00 -4°C° 0.1 mm 3 mps 728 mmHg 94%
    03:00 -4°C° 0.1 mm 3 mps 728 mmHg 94%
    04:00 -4°C° 0.1 mm 3 mps 728 mmHg 94%
    05:00 -4°C° 0.1 mm 3 mps 728 mmHg 95%
    06:00 -3°C° 0 mm 2 mps 728 mmHg 95%
    07:00 -4°C° 0 mm 2 mps 728 mmHg 95%
    08:00 -4°C° 0 mm 2 mps 728 mmHg 96%
    09:00 -1°C° 0 mm 1 mps 729 mmHg 94%
    10:00 -1°C° 0 mm 1 mps 729 mmHg 92%
    11:00 -1°C° 0 mm 1 mps 729 mmHg 91%
    12:00 0°C° 0 mm 1 mps 729 mmHg 89%
    13:00 0°C° 0 mm 1 mps 729 mmHg 88%
    14:00 -1°C° 0 mm 0 mps 729 mmHg 86%
    15:00 0°C° 0 mm 1 mps 729 mmHg 88%
    16:00 -1°C° 0 mm 1 mps 729 mmHg 89%
    17:00 -1°C° 0 mm 1 mps 729 mmHg 91%
    18:00 -1°C° 0 mm 1 mps 729 mmHg 91%
    19:00 -1°C° 0 mm 1 mps 730 mmHg 91%
    20:00 -1°C° 0 mm 1 mps 730 mmHg 92%
    21:00 -4°C° 0 mm 2 mps 730 mmHg 92%
    22:00 -4°C° 0 mm 2 mps 730 mmHg 92%
    23:00 -4°C° 0 mm 2 mps 730 mmHg 92%

    15 December, Saturday

    Time Temperature Precipitation Wind Pressure Humidity
    00:00 -4°C° 0 mm 2 mps 730 mmHg 93%
    01:00 -5°C° 0 mm 2 mps 730 mmHg 93%
    02:00 -5°C° 0 mm 2 mps 730 mmHg 93%
    03:00 -5°C° 0 mm 2 mps 730 mmHg 93%
    04:00 -6°C° 0 mm 3 mps 729 mmHg 93%
    05:00 -6°C° 0 mm 3 mps 729 mmHg 93%
    06:00 -6°C° 0 mm 3 mps 730 mmHg 93%
    07:00 -6°C° 0 mm 3 mps 730 mmHg 93%
    08:00 -6°C° 0 mm 3 mps 730 mmHg 92%
    09:00 -7°C° 0 mm 4 mps 730 mmHg 91%
    10:00 -7°C° 0 mm 4 mps 730 mmHg 91%
    11:00 -5°C° 0 mm 4 mps 730 mmHg 90%
    12:00 -5°C° 0.1 mm 4 mps 730 mmHg 91%
    13:00 -5°C° 0.1 mm 4 mps 730 mmHg 91%
    14:00 -5°C° 0.1 mm 4 mps 730 mmHg 92%
    15:00 -5°C° 0.3 mm 4 mps 730 mmHg 93%
    16:00 -5°C° 0.3 mm 4 mps 730 mmHg 93%
    17:00 -5°C° 0.3 mm 4 mps 730 mmHg 94%
    18:00 -5°C° 0.4 mm 4 mps 730 mmHg 94%
    19:00 -5°C° 0.4 mm 4 mps 730 mmHg 94%
    20:00 -5°C° 0.4 mm 4 mps 730 mmHg 94%
    21:00 -5°C° 0.5 mm 4 mps 730 mmHg 95%
    22:00 -5°C° 0.5 mm 3 mps 730 mmHg 95%
    23:00 -5°C° 0.5 mm 3 mps 730 mmHg 96%
    Show more